Regional Weather Roundup
Issued by NWS

Home | Current Version | Previous Version | Graphics & Text | Print | Product List | Glossary On
Versions: 1 2 3 4 5 6 7 8 9 10 11 12 13 14 15 16 17 18 19 20 21 22 23 24 25 26 27 28 29 30 31 32 33 34 35 36 37 38 39 40 41 42 43 44 45 46 47 48 49 50
160
ASUS45 KTFX 211910
RWRMT
MONTANA REGIONAL WEATHER ROUNDUP
NATIONAL WEATHER SERVICE GREAT FALLS MT
100 PM MDT FRI JUL 21 2017

NOTE: "FAIR" INDICATES FEW OR NO CLOUDS BELOW 12000 FEET WITH NO
SIGNIFICANT WEATHER AND/OR OBSTRUCTIONS TO VISIBILITY.

MTZ001>007-043-212000-
WEST OF THE DIVIDE

CITY           SKY/WX    TMP DP  RH WIND       PRES   REMARKS
KALISPELL      SUNNY     76  37  24 SW8       30.06F
MISSOULA       SUNNY     78  33  19 NW5       30.08F
BUTTE          SUNNY     77  24  14 W18G37    30.17F
MULLAN PASS    SUNNY     59  34  39 VRB6      30.24S
ANACONDA         N/A     79  28  15 W14G23    30.12F
DEER LODGE       N/A     75  36  23 NE6       30.15S
EUREKA           N/A     75  37  25 MISG      30.05F
HAMILTON         N/A     79  37  22 CALM      30.10F
LIBBY            N/A     75  36  23 N5        30.06F
$$

MTZ008-052>055-212000-
SOUTHWEST MONTANA

CITY           SKY/WX    TMP DP  RH WIND       PRES   REMARKS
BOZEMAN        SUNNY     80  41  24 N7        30.11F
DILLON         SUNNY     78  43  28 SW5       30.14F
W YELLOWSTONE  SUNNY     75  19  12 W13       30.25F
ENNIS          SUNNY     79  27  14 W6        30.21F
THREE FORKS      N/A     83  36  18 SW9       30.08F
$$

MTZ009-010-012-014-046-048-049-054-212000-
EAST SLOPES AND CENTRAL MONTANA

CITY           SKY/WX    TMP DP  RH WIND       PRES   REMARKS
CUT BANK       SUNNY     76  26  15 W14G24    30.01F
GREAT FALLS    SUNNY     82  17   9 W20G29    30.01S
HELENA         SUNNY     83  32  16 NW17G23   30.08S
CHOTEAU          N/A     79  27  14 NW13      30.04F
$$

MTZ011-013-016-021-045-047-050-051-212000-
NORTH CENTRAL MONTANA

CITY           SKY/WX    TMP DP  RH WIND       PRES   REMARKS
HAVRE          SUNNY     84  29  13 W15G32    29.94F
LEWISTOWN      SUNNY     82  23  11 W15G24    30.03F
N BAR RANCH      N/A     82  23  11 NW16G23   30.06F
CHINOOK          N/A     81  36  19 SW13G18   29.93F
$$

MTZ017>020-022>027-061-062-212000-
NORTHEAST MONTANA

CITY           SKY/WX    TMP DP  RH WIND       PRES   REMARKS
GLASGOW        SUNNY     87  33  14 MISG      29.88S
JORDAN           N/A     88  30  12 NW16G23   29.93S
SIDNEY         SUNNY     91  55  29 NW12      29.83S
WOLF POINT     SUNNY     91  38  15 W22G29    29.85S
MALTA          SUNNY     84  39  20 NW13G26   29.91S
PLENTYWOOD       N/A     84  55  37 SW12G21   29.83F
POPLAR           N/A     88  45  22 W15G23    29.84F
$$

MTZ028>42-056>058-212000-
SOUTHCENTRAL AND SOUTHEAST MONTANA

CITY           SKY/WX    TMP DP  RH WIND       PRES   REMARKS
BAKER          SUNNY     90  51  26 W18G28    29.92R
BILLINGS       MOSUNNY   86  36  16 S8        30.01F
LIVINGSTON     SUNNY     84  29  13 W12       30.09F
MILES CITY     SUNNY     92  25   9 NW17G26   29.92F
BIG TIMBER     SUNNY     84  28  13 W21G28    30.10F
FORSYTH          N/A     88  28  11 W13G18    29.95F
LAUREL           N/A     86  40  19 E5        30.01F
$$

REGIONAL REPORTS...DAKOTAS

CITY           SKY/WX    TMP DP  RH WIND       PRES   REMARKS
WILLISTON      SUNNY     86  60  41 VRB6      29.84S
MINOT          PTSUNNY   80  64  58 E12       29.77F
DICKINSON      SUNNY     86  63  45 E3        29.84F
BEACH            N/A     86  54  32 NW14      29.92S
CROSBY           N/A     82  61  47 SW14G21   29.83S
TIOGA            N/A     84  57  39 NW12      29.86S
WATFORD CITY     N/A     88  55  33 CALM      29.82F
BISMARCK       SUNNY     87  68  52 S7        29.81F HX  90
GRAND FORKS    CLOUDY    88  73  61 NW5       29.76F HX  95
FARGO          MOSUNNY   91  70  49 N6        29.76F HX  96
BUFFALO SD       N/A     88  58  36 NW14      29.84S
RAPID CITY     SUNNY     92  56  29 N21G31    29.91S HAZE    HX  90
$$

REGIONAL REPORTS...WYOMING/IDAHO/WASHINGTON

CITY           SKY/WX    TMP DP  RH WIND       PRES   REMARKS
GILLETTE       MOSUNNY   85  36  17 N10       30.06R
SHERIDAN       SUNNY     86  35  16 NW9       30.05F
BUFFALO WY     SUNNY     82  37  20 N12G20    30.13R
CODY           SUNNY     80  37  21 CALM      30.12F
YELLOWSTONE LA   N/A     72  28  19 W8        30.34S
IDAHO FALLS    SUNNY     83  41  22 CALM      30.16F
BOISE          SUNNY     84  43  23 W13       30.07F
SPOKANE        PTSUNNY   71  42  35 SW10      30.14S
$$

REGIONAL REPORTS...ALBERTA

CITY           SKY/WX    TMP DP  RH WIND       PRES   REMARKS
EDMONTON       CLOUDY    59  55  88 NE6       29.83R
CALGARY        PTSUNNY   64  46  52 N18       30.00R
LETHBRIDGE     MOSUNNY   77  36  22 W23G41    29.95S
MEDICINE HAT   PTSUNNY   79  41  25 W15G23    29.90F
WATERTON GATE    N/A     70  36  28 SW15G29     N/A
CARDSTON         N/A     73  37  27 W10G18      N/A
$$

REGIONAL REPORTS...SASKATCHEWAN

CITY           SKY/WX    TMP DP  RH WIND       PRES   REMARKS
SWIFT CURRENT  SUNNY     73  50  43 W18G29    29.89S
REGINA         MOSUNNY   81  55  41 SW10      29.80F
SASKATOON      CLOUDY    64  57  77 NE14      29.84F
CYPRESS HILLS    N/A     68  37  32 NW10G20     N/A
ROCKGLEN         N/A     77  43  29 NW16G26     N/A
ASSINIBOIA       N/A     63  54  72 SW10        N/A
$$




USA.gov is the U.S. government's official web portal to all federal, state and local government web resources and services.